Retour au catalogue

QIANFAN-157

ActifCommunicationsPO
NORAD 69116·PAYLOAD·🇨🇳 China

Lancé May 17, 2026 depuis Wenchang Space Launch Site

Loading…

Prochains Passages (prochaines 24 heures)

TLE

FraisSource: Space-Track

Époque: Sep 14, 2026, 13:35 UTC

1 69116U 26108N   26257.56644886  .00000099  00000-0  13401-3 0  9999
2 69116  89.0186  13.0214 0002017 111.5553 248.5813 13.51027332 16565

Suivez QIANFAN-157 en temps réel avec AllMySat

Download on the App Store